Location: Unspecified
(0.0000°N, 0.0000°E)
Time: 17:30:20
(UTC+00:00)

Daily predictions for brighter satellites

Satellite Brightness Start Highest point End
(mag) Time Altitude Azimuth Time Altitude Azimuth Time Altitude Azimuth
Ariane H10-3 4.3 18:27:02 10° W 18:31:20 79° S 18:58:43 10° E
Cosmos 2219 3.3 18:33:13 10° S 18:38:51 60° ESE 18:44:29 10° NNE
Centaur D-1AR AC-48 3.7 18:36:06 10° SSW 18:39:23 24° SE 18:46:16 10° E
Okean 1 Rocket 3.2 18:42:47 10° S 18:47:08 53° E 18:51:29 10° NNE
Cosmos 2227 Rocket 3.7 18:45:19 10° SE 18:48:27 15° ESE 18:51:08 11° ENE
Okean 1 3.8 18:48:43 10° NNE 18:52:29 37° E 18:56:15 10° SSE
OAO 3 Rocket 4.2 18:48:52 10° WSW 18:53:34 44° NW 18:58:14 10° NE
GPS 2-15 Rocket1 3.1 18:51:44 10° WSW 18:56:28 78° NNW 19:00:18 15° ENE
Delta 7925 Rocket 4.0 18:52:33 10° WNW 18:57:07 52° SSW 19:02:22 10° SE
Meteor 1-29 3.7 18:59:06 10° NE 19:02:09 32° ESE 19:05:13 10° SSE
HJ-1C 4.3 19:02:06 10° SE 19:05:03 28° E 19:07:59 10° NNE
Cosmos 1980 Rocket 2.8 19:00:08 10° NNW 19:05:45 62° WSW 19:11:22 10° S
GPS 2-05 Rocket1 2.9 19:04:28 10° NW 19:08:05 86° SW 19:10:59 15° SE
OAO 2 Rocket 3.4 19:03:26 10° NW 19:08:42 73° NE 19:13:23 13° ESE
Cosmos 1812 3.5 19:07:39 10° NNW 19:11:24 53° W 19:15:10 10° S
SL-08 ROCKET BODY 4.4 19:05:38 10° S 19:11:40 71° E 19:17:46 10° N
ALOS 2.5 19:08:39 10° SSE 19:13:04 43° ENE 19:17:29 10° N
ARIANE 5 DEB (SYLDA) 2.8 19:11:15 10° W 19:15:10 61° S 19:17:35 22° ESE
ISS -0.1 19:13:35 10° W 19:15:17 14° SW 19:16:59 10° SSW
FengYun 1-2 T 4.4 19:12:06 10° SSE 19:17:20 45° ENE 19:22:31 10° N
XTE 3.5 19:14:45 10° SW 19:17:35 41° SSE 19:18:07 37° SE
Cosmos 2327 Rocket 4.4 19:15:43 10° S 19:21:48 71° E 19:27:55 10° N
BLOCK DM-SL R/B 3.4 19:18:15 10° W 19:23:09 85° S 19:26:57 25° E
Helios 1B rocket 2.9 19:24:13 10° N 19:28:17 61° WNW 19:32:22 10° SSW
FREGAT/IRIS 4.2 19:26:02 10° S 19:28:55 38° W 19:31:47 10° NNW
Meteor 1-5 Rocket 4.3 19:25:27 10° S 19:31:21 85° W 19:37:19 10° N
Centaur D-1AR AC-36 2.8 19:17:09 10° WNW 19:34:31 52° NNE 19:36:17 36° ENE
SJ-6B 4.0 19:31:21 10° S 19:35:20 47° WSW 19:39:15 10° NNW
Resurs 01 Rocket 1.5 19:31:06 10° SSE 19:35:29 61° ENE 19:39:50 10° N
Atlas Centaur 2 3.2 19:29:54 10° WSW 19:37:06 48° NW 19:40:35 24° NNE
SL-16 R/B 2.0 19:32:59 10° N 19:38:38 75° ENE 19:44:17 10° SSE
SL-19 R/B 4.2 19:34:05 10° SSE 19:39:35 59° ENE 19:45:03 10° N
Cosmos 2074 Rocket 4.3 19:34:44 10° SSW 19:40:54 66° W 19:47:04 10° N
Cosmos 2184 Rocket 4.3 19:34:56 10° S 19:41:17 70° W 19:47:35 10° N
Ariane 42L R/B 3.7 19:42:43 10° WNW 19:43:35 18° NW 19:43:35 18° NW
Cosmos 2181 Rocket 4.0 19:39:26 10° N 19:45:45 83° W 19:52:13 10° S
Cosmos 2082 3.7 19:40:47 10° S 19:46:23 58° ESE 19:47:15 52° ENE
Palapa B4 Rocket 3.6 19:43:14 10° NW 19:46:18 38° NNW 19:46:18 38° NNW
Meteor 1-19 Rocket 4.1 19:41:38 10° N 19:47:23 76° E 19:53:14 10° S
BREEZE-M DEB (TANK) 3.0 19:44:45 10° SW 19:48:20 54° WSW 19:48:20 54° WSW
FENGYUN 3A 3.8 19:44:00 10° S 19:49:21 72° WSW 19:54:44 10° NNW
Cosmos 1238 Rocket 3.8 19:56:00 38° WSW 19:56:00 38° WSW 19:59:11 10° SSW
Cosmos 2322 Rocket 2.5 19:51:04 10° NNW 19:56:37 66° WSW 20:02:13 10° S
Cosmos 1455 Rocket 4.5 19:53:04 10° S 19:55:10 27° S 19:55:10 27° S
Resurs 1-3 3.9 19:54:17 10° S 20:03:03 10° NNW 20:03:03 10° NNW
Cosmos 2341 Rocket 4.3 19:54:19 10° S 19:59:14 47° SE 19:59:14 47° SE
Spot 2 Rocket 3.8 19:58:27 10° S 20:03:26 66° WSW 20:08:26 10° NNW
Cosmos 2154 Rocket 4.0 20:03:33 10° S 20:09:53 82° W 20:12:37 37° N
ARIANE 5 R/B 4.4 20:07:33 10° W 20:09:13 19° WNW 20:09:13 19° WNW
Cosmos 2297 Rocket 2.2 20:07:09 10° SSW 20:12:13 72° SSW 20:12:13 72° SSW
CENTAUR R/B 4.1 20:06:27 10° NW 20:14:20 46° WSW 20:21:55 10° S
ARIANE 5 R/B 4.0 19:46:45 10° W 20:17:12 81° S 20:18:13 67° ESE
ARIANE 5 R/B 3.6 19:37:15 10° W 20:30:15 87° S 20:30:46 80° ESE
Cosmos 2227 Rocket 3.5 20:27:06 10° SW 20:32:13 36° WNW 20:33:03 34° NW
